Weather History for PASA - October, 2012

Change the Weather History Date:

Thursday, October 11, 2012

  Actual Average Record
Temperature  
Mean Temperature 32 °F -  
Max Temperature 37 °F - - ()
Min Temperature 28 °F - - ()
Degree Days  
Heating Degree Days 32    
Moisture  
Dew Point 27 °F    
Average Humidity 78    
Maximum Humidity 87    
Minimum Humidity 65    
Precipitation  
Precipitation 0.00 in - - ()
Sea Level Pressure  
Sea Level Pressure 30.16 in    
Wind  
Wind Speed 11 mph (ENE)    
Max Wind Speed 18 mph    
Max Gust Speed 21 mph    
Visibility 10 miles    
Events      
T = Trace of Precipitation, MM = Missing Value Source: NWS Daily Summary

Daily Weather History Graph

Daily Weather History Graph

Search for Another Location

Airport or City:

Trip Planner

Search our weather history database for the weather conditions in past years. The results will help you decide how hot, cold, wet, or windy it might be!

Date:

Astronomy

Oct. 11, 2012 Rise Set
Actual Time 10:01 AM AKDT 8:14 PM AKDT
Civil Twilight 9:13 AM AKDT 9:01 PM AKDT
Nautical Twilight 8:19 AM AKDT 9:55 PM AKDT
Astronomical Twilight 7:23 AM AKDT 10:51 PM AKDT
Moon 4:41 AM AKDT (10/11) 6:56 PM AKDT (10/11)
Length of Visible Light 11h 47m
Length of Day
10h 12m
Waning Crescent, 17% of the Moon is Illuminated
Oct 11
Waning Crescent
Oct 15
New
Oct 21
First Quarter
Oct 29
Full
Nov 6
Last Quarter

Hourly Weather History & Observations

Time (AKDT) Temp. Windchill Dew Point Humidity Pressure Visibility Wind Dir Wind Speed Gust Speed Precip Events Conditions
12:16 AM 33.8 °F 24.8 °F 28.4 °F 81% 30.26 in 10.0 mi ENE 12.7 mph - N/A   Clear
12:36 AM 33.8 °F 25.3 °F 28.4 °F 81% 30.26 in 10.0 mi East 11.5 mph - N/A   Clear
12:56 AM 33.8 °F 27.7 °F 28.4 °F 81% 30.26 in 10.0 mi East 6.9 mph - N/A   Clear
1:16 AM 30.2 °F 23.4 °F 26.6 °F 86% 30.26 in 10.0 mi ESE 6.9 mph - N/A   Clear
1:36 AM 30.2 °F 24.3 °F 26.6 °F 86% 30.26 in 10.0 mi ESE 5.8 mph - N/A   Clear
1:56 AM 30.2 °F 23.4 °F 26.6 °F 86% 30.25 in 10.0 mi ESE 6.9 mph - N/A   Clear
2:16 AM 28.4 °F 21.2 °F 24.8 °F 86% 30.25 in 10.0 mi SE 6.9 mph - N/A   Clear
2:36 AM 28.4 °F 22.2 °F 24.8 °F 86% 30.25 in 10.0 mi SE 5.8 mph - N/A   Clear
2:56 AM 28.4 °F 23.3 °F 24.8 °F 86% 30.24 in 10.0 mi East 4.6 mph - N/A   Clear
3:16 AM 30.2 °F 24.3 °F 24.8 °F 80% 30.24 in 10.0 mi East 5.8 mph - N/A   Clear
3:36 AM 28.4 °F 21.2 °F 24.8 °F 86% 30.23 in 10.0 mi ESE 6.9 mph - N/A   Clear
3:56 AM 28.4 °F 20.4 °F 24.8 °F 86% 30.22 in 10.0 mi ESE 8.1 mph - N/A   Clear
4:16 AM 28.4 °F 21.2 °F 24.8 °F 86% 30.22 in 10.0 mi ESE 6.9 mph - N/A   Clear
4:36 AM 28.4 °F 23.3 °F 23.0 °F 80% 30.22 in 10.0 mi East 4.6 mph - N/A   Clear
4:56 AM 28.4 °F 20.4 °F 24.8 °F 86% 30.22 in 10.0 mi ENE 8.1 mph - N/A   Clear
5:16 AM 35.6 °F 27.5 °F 28.4 °F 75% 30.21 in 10.0 mi ENE 11.5 mph - N/A   Clear
5:36 AM 33.8 °F 24.8 °F 28.4 °F 81% 30.21 in 10.0 mi ENE 12.7 mph - N/A   Clear
5:56 AM 33.8 °F 24.3 °F 28.4 °F 81% 30.20 in 10.0 mi ENE 13.8 mph - N/A   Clear
6:16 AM 33.8 °F 23.9 °F 28.4 °F 81% 30.20 in 10.0 mi ENE 15.0 mph - N/A   Clear
6:36 AM 33.8 °F 23.5 °F 28.4 °F 81% 30.19 in 10.0 mi ENE 16.1 mph - N/A   Clear
6:56 AM 33.8 °F 23.2 °F 28.4 °F 81% 30.19 in 10.0 mi ENE 17.3 mph - N/A   Clear
7:16 AM 33.8 °F 23.5 °F 28.4 °F 81% 30.19 in 10.0 mi ENE 16.1 mph - N/A   Clear
7:36 AM 33.8 °F 23.5 °F 28.4 °F 81% 30.19 in 10.0 mi ENE 16.1 mph 20.7 mph N/A   Clear
7:56 AM 33.8 °F 23.2 °F 26.6 °F 75% 30.18 in 10.0 mi ENE 17.3 mph - N/A   Clear
8:16 AM 33.8 °F 23.5 °F 26.6 °F 75% 30.18 in 10.0 mi ENE 16.1 mph - N/A   Clear
8:36 AM 33.8 °F 22.8 °F 26.6 °F 75% 30.17 in 10.0 mi ENE 18.4 mph - N/A   Clear
8:56 AM 33.8 °F 23.2 °F 26.6 °F 75% 30.17 in 10.0 mi ENE 17.3 mph - N/A   Clear
9:16 AM 33.8 °F 23.2 °F 26.6 °F 75% 30.17 in 10.0 mi ENE 17.3 mph - N/A   Clear
9:36 AM 33.8 °F 23.5 °F 26.6 °F 75% 30.17 in 10.0 mi ENE 16.1 mph - N/A   Clear
9:56 AM 33.8 °F 23.2 °F 26.6 °F 75% 30.17 in 10.0 mi ENE 17.3 mph - N/A   Clear
10:16 AM 33.8 °F 24.8 °F 26.6 °F 75% 30.16 in 10.0 mi ENE 12.7 mph - N/A   Clear
10:36 AM 33.8 °F 23.9 °F 26.6 °F 75% 30.16 in 10.0 mi ENE 15.0 mph - N/A   Clear
10:56 AM 33.8 °F 24.8 °F 26.6 °F 75% 30.16 in 10.0 mi ENE 12.7 mph - N/A   Clear
11:16 AM 33.8 °F 24.3 °F 26.6 °F 75% 30.17 in 10.0 mi ENE 13.8 mph - N/A   Clear
11:36 AM 33.8 °F 25.8 °F 26.6 °F 75% 30.17 in 10.0 mi ENE 10.4 mph - N/A   Clear
11:56 AM 35.6 °F 28.0 °F 26.6 °F 70% 30.17 in 10.0 mi ENE 10.4 mph - N/A   Clear
12:16 PM 35.6 °F 28.6 °F 30.2 °F 81% 30.17 in 10.0 mi NE 9.2 mph - N/A   Partly Cloudy
12:36 PM 35.6 °F 29.2 °F 28.4 °F 75% 30.16 in 10.0 mi NE 8.1 mph - N/A   Partly Cloudy
1:16 PM 35.6 °F 28.0 °F 26.6 °F 70% 30.16 in 10.0 mi ENE 10.4 mph - N/A   Clear
1:36 PM 35.6 °F 28.6 °F 26.6 °F 70% 30.16 in 10.0 mi ENE 9.2 mph - N/A   Clear
1:56 PM 37.4 °F 30.3 °F 26.6 °F 65% 30.16 in 10.0 mi ENE 10.4 mph - N/A   Clear
2:16 PM 35.6 °F 28.6 °F 26.6 °F 70% 30.16 in 10.0 mi ENE 9.2 mph - N/A   Clear
2:36 PM 35.6 °F 27.5 °F 28.4 °F 75% 30.15 in 10.0 mi NE 11.5 mph - N/A   Clear
2:56 PM 35.6 °F 27.1 °F 26.6 °F 70% 30.14 in 10.0 mi NE 12.7 mph - N/A   Clear
3:16 PM 35.6 °F 27.5 °F 28.4 °F 75% 30.14 in 10.0 mi NE 11.5 mph - N/A   Clear
3:36 PM 35.6 °F 26.6 °F 28.4 °F 75% 30.13 in 10.0 mi NE 13.8 mph - N/A   Clear
3:56 PM 35.6 °F 25.9 °F 28.4 °F 75% 30.12 in 10.0 mi ENE 16.1 mph - N/A   Clear
4:16 PM 35.6 °F 26.6 °F 28.4 °F 75% 30.12 in 10.0 mi ENE 13.8 mph 18.4 mph N/A   Clear
4:36 PM 35.6 °F 25.9 °F 28.4 °F 75% 30.11 in 10.0 mi ENE 16.1 mph - N/A   Clear
4:56 PM 35.6 °F 27.1 °F 28.4 °F 75% 30.10 in 10.0 mi ENE 12.7 mph - N/A   Clear
5:16 PM 35.6 °F 27.1 °F 28.4 °F 75% 30.10 in 10.0 mi ENE 12.7 mph - N/A   Clear
5:36 PM 35.6 °F 26.6 °F 28.4 °F 75% 30.10 in 10.0 mi NE 13.8 mph - N/A   Clear
5:56 PM 35.6 °F 26.2 °F 28.4 °F 75% 30.10 in 10.0 mi NE 15.0 mph - N/A   Clear
6:16 PM 35.6 °F 27.5 °F 28.4 °F 75% 30.10 in 10.0 mi NE 11.5 mph - N/A   Partly Cloudy
6:36 PM 35.6 °F 26.2 °F 28.4 °F 75% 30.09 in 10.0 mi NE 15.0 mph - N/A   Scattered Clouds
6:56 PM 35.6 °F 27.5 °F 28.4 °F 75% 30.10 in 10.0 mi NE 11.5 mph - N/A   Scattered Clouds
7:16 PM 33.8 °F 23.5 °F 28.4 °F 81% 30.09 in 10.0 mi NE 16.1 mph - N/A   Mostly Cloudy
7:36 PM 33.8 °F 24.3 °F 28.4 °F 81% 30.10 in 10.0 mi NE 13.8 mph - N/A   Overcast
7:56 PM 33.8 °F 24.8 °F 30.2 °F 87% 30.10 in 10.0 mi NE 12.7 mph 18.4 mph N/A   Overcast
8:16 PM 33.8 °F 24.8 °F 28.4 °F 81% 30.10 in 10.0 mi NE 12.7 mph 19.6 mph N/A   Overcast
8:36 PM 33.8 °F 24.8 °F 28.4 °F 81% 30.10 in 10.0 mi ENE 12.7 mph 17.3 mph N/A   Overcast
8:56 PM 33.8 °F 24.3 °F 28.4 °F 81% 30.10 in 10.0 mi NE 13.8 mph - N/A   Overcast
9:16 PM 33.8 °F 24.8 °F 28.4 °F 81% 30.10 in 10.0 mi NE 12.7 mph - N/A   Overcast
9:36 PM 33.8 °F 24.3 °F 28.4 °F 81% 30.09 in 10.0 mi NE 13.8 mph - N/A   Overcast
9:56 PM 33.8 °F 23.9 °F 28.4 °F 81% 30.09 in 10.0 mi NE 15.0 mph 19.6 mph N/A   Overcast
10:16 PM 33.8 °F 23.9 °F 28.4 °F 81% 30.10 in 10.0 mi NE 15.0 mph - N/A   Overcast
10:36 PM 33.8 °F 24.8 °F 28.4 °F 81% 30.10 in 10.0 mi NE 12.7 mph - N/A   Overcast
10:56 PM 33.8 °F 24.3 °F 28.4 °F 81% 30.10 in 10.0 mi NE 13.8 mph - N/A   Overcast
11:16 PM 32.0 °F 21.2 °F 26.6 °F 80% 30.10 in 10.0 mi NE 16.1 mph 20.7 mph N/A   Overcast
11:36 PM 32.0 °F 20.8 °F 26.6 °F 80% 30.09 in 10.0 mi NE 17.3 mph - N/A   Overcast
11:56 PM 32.0 °F 20.5 °F 26.6 °F 80% 30.09 in 10.0 mi NE 18.4 mph - N/A   Overcast